FENGYUN 1C DEB

Satellite information

Favourite Embed

Satellite Type and Status

DEBRISIN ORBIT

Key statistics

Satellite FENGYUN 1C DEB at a glance.

Uptime

9662

Days in orbit

Revolutions

≈ 14.4

Per day

Orbit

SSO

Sun Synchronous Orbit

Inclination

98.9

Latest

Satellite identification and parameters

Extended collection of information and parameters for FENGYUN 1C DEB.

Object identification

Identified? True

Debris? True

Object name: FENGYUN 1C DEB

International designator: 1999-025FP

Object number (NORAD): 29869

Object ID (CCSDS): 29869

Country: PEOPLES REPUBLIC OF CHINA (PRC)

Current information (Y/N): Y

RCS size: SMALL

Orbital parameters

Period: 100.229 minutes

Inclination: 98.8657 deg

SMA: 7147.508 km

Apoapsis: 831.778 km

Periapsis: 706.968 km

RAAN: 223.4915 deg

Eccentricy: 0.008731

Argument of periapsis: 162.8088 deg

Mean anomaly: 251.8449 deg

Mean motion: 14.36715555 rev/day

Mean motion (dot): 0.00001413 rev/day2

B* drag term: 0.00047419 1/REarth

Two-line elements (TLE)

Creation date: Oct. 22, 2025, 12:16 a.m.

Reference frame: TEME

Reference center: EARTH

Epoch: Oct. 21, 2025, 6:21 p.m. UTC

TLE line 0: 0 FENGYUN 1C DEB

TLE line 1: 1 29869U 99025FP 25294.76527595 .00001413 00000-0 47419-3 0 9994

TLE line 2: 2 29869 98.8657 223.4915 0087310 162.8088 251.8449 14.36715555980740

Live tracking on map

Real-time ground track for satellite FENGYUN 1C DEB.

In-orbit conjunctions

A list of the most updated potential collisions computed for object FENGYUN 1C DEB.

Target Orbit TCA Probability of collision Miss distance Type
COSMOS 1867 COOLANT LEO 2025-06-20 01:36:20 0.0005534175 138.0 (m) DEBRIS
FENGYUN 1C DEB SSO 2025-04-24 03:35:41 0.0001403106 400.0 (m) DEBRIS
FENGYUN 1C DEB SSO 2024-11-06 02:05:45 0.0001057392 221.0 (m) DEBRIS
CZ-2C DEB SSO 2024-09-19 14:31:59 0.0001160142 344.0 (m) DEBRIS

Associated space launch

Chinese polar orbiting meteorological satellite

FENGYUN 1C DEB was lifted into orbit during the mission ‘Long March 4B | Feng Yun 1C’, on board a Long March 4B space rocket.

The launch took place on May 10, 1999, 1:33 a.m. from Launch Complex 7.

For more information about the launch, click the button.

Launch to space Long March 4B | Feng Yun 1C
Long March 4B | Feng Yun 1C

Agency: N/A

Status: Launch Successful

Launch date: May 10, 1999, 1:33 a.m. UTC

Rocket: Long March 4B

Launch pad: Launch Complex 7

Location: Taiyuan Satellite Launch Center, People's Republic of China

...

Latest news about this satellite

There are no fresh news available about this satellite. Check back as we update our databases every day.


Newsletter sign-up

Weekly statistics, charts and insights to help you stay on top of the space industry.